Brookings, OR

3:34 PM PST on November 17, 2017 (GMT -0800)
Brookings State

Weather History for KBOK - December, 2012

Change the Weather History Date:

Friday, December 14, 2012

  Actual Average Record
Temperature  
Mean Temperature 42 °F -  
Max Temperature 47 °F 54 °F 68 °F (1958)
Min Temperature 36 °F 41 °F 26 °F (1932)
Degree Days  
Heating Degree Days 24    
Moisture  
Dew Point 41 °F    
Average Humidity 96    
Maximum Humidity 100    
Minimum Humidity 71    
Precipitation  
Precipitation 0.00 in - - ()
Sea Level Pressure  
Sea Level Pressure 29.98 in    
Wind  
Wind Speed 3 mph (NW)    
Max Wind Speed 7 mph    
Max Gust Speed -    
Visibility 9 miles    
Events Rain    
Averages and records for this station are not official NWS values.
T = Trace of Precipitation, MM = Missing Value Source: NWS Daily Summary

Daily Weather History Graph

Daily Weather History Graph

Search for Another Location

Airport or City:

Trip Planner

Search our weather history database for the weather conditions in past years. The results will help you decide how hot, cold, wet, or windy it might be!

Date:

Astronomy

Dec. 14, 2012 Rise Set
Actual Time 7:38 AM PST 4:46 PM PST
Civil Twilight 7:06 AM PST 5:17 PM PST
Nautical Twilight 6:31 AM PST 5:53 PM PST
Astronomical Twilight 5:57 AM PST 6:27 PM PST
Moon 8:46 AM PST (12/14) 6:46 PM PST (12/14)
Length of Visible Light 10h 11m
Length of Day
9h 08m
Waxing Crescent, 3% of the Moon is Illuminated
Dec 14
Waxing Crescent
Dec 19
First Quarter
Dec 28
Full
Jan 4
Last Quarter
Jan 11
New

Hourly Weather History & Observations

Time (PST) Temp. Windchill Dew Point Humidity Pressure Visibility Wind Dir Wind Speed Gust Speed Precip Events Conditions
12:56 AM - - - N/A% - - North - - N/A   Unknown
1:56 AM - - - N/A% - - North - - N/A   Unknown
3:56 AM - - - N/A% - - North - - N/A   Unknown
4:56 AM - - - N/A% - - North - - N/A   Unknown
5:56 AM - - - N/A% - - North - - N/A   Unknown
6:56 AM - - - N/A% - - North - - N/A   Unknown
7:56 AM - - - N/A% - - North - - N/A   Unknown
8:56 AM - - - N/A% - - North - - N/A   Unknown
10:56 AM - - - N/A% - - North - - N/A   Unknown
11:56 AM 43.9 °F - 41.9 °F 93% 29.96 in 2.5 mi Calm Calm - N/A Rain Light Rain
12:03 PM 44.6 °F 43.1 °F 42.8 °F 93% 29.96 in 10.0 mi West 3.5 mph - N/A   Unknown
12:10 PM 44.6 °F 43.1 °F 42.8 °F 93% 29.96 in 10.0 mi WNW 3.5 mph - N/A   Overcast
12:40 PM 44.6 °F 42.2 °F 44.6 °F 100% 29.96 in 10.0 mi WNW 4.6 mph - N/A   Overcast
12:56 PM 43.9 °F 41.3 °F 43.9 °F 100% 29.97 in 8.0 mi West 4.6 mph - N/A   Overcast
1:12 PM 44.6 °F 42.2 °F 44.6 °F 100% 29.97 in 8.0 mi WNW 4.6 mph - N/A   Unknown
1:43 PM 44.6 °F 41.4 °F 44.6 °F 100% 29.97 in 10.0 mi NW 5.8 mph - N/A   Overcast
1:56 PM 45.0 °F 41.8 °F 45.0 °F 100% 29.98 in 6.0 mi NW 5.8 mph - 0.00 in Rain Light Rain
2:18 PM 46.4 °F 42.9 °F 44.6 °F 93% 29.98 in 10.0 mi NW 6.9 mph - 0.00 in   Mostly Cloudy
2:56 PM 47.8 °F - 38.8 °F 71% 29.98 in 10.0 mi Variable 4.6 mph - 0.00 in   Clear
3:56 PM 45.9 °F - 43.9 °F 93% 30.00 in 10.0 mi Calm Calm - 0.00 in Rain Light Rain
4:56 PM 41.9 °F 38.2 °F 39.9 °F 93% 29.99 in 10.0 mi ENE 5.8 mph - 0.00 in   Clear
5:56 PM 41.0 °F - 39.9 °F 96% 29.99 in 10.0 mi Calm Calm - N/A   Clear
6:56 PM 37.9 °F 34.4 °F 37.9 °F 100% 30.00 in 10.0 mi NE 4.6 mph - N/A   Clear
7:56 PM 38.8 °F 35.4 °F 38.8 °F 100% 30.01 in 10.0 mi Variable 4.6 mph - N/A   Clear
8:56 PM 37.9 °F 35.5 °F 37.9 °F 100% 30.00 in 10.0 mi ENE 3.5 mph - N/A   Clear
9:56 PM 36.0 °F 32.1 °F 36.0 °F 100% 30.01 in 10.0 mi ESE 4.6 mph - N/A   Clear
10:56 PM 36.9 °F 31.4 °F 36.9 °F 100% 30.00 in 10.0 mi Variable 6.9 mph - N/A   Clear
11:56 PM 36.0 °F 30.3 °F 36.0 °F 100% 30.00 in 10.0 mi Variable 6.9 mph - N/A   Clear